Regional Weather Roundup
Issued by NWS

Home | Current Version | Previous Version | Graphics & Text | Print | Product List | Glossary On
Versions: 1 2 3 4 5 6 7 8 9 10 11 12 13 14 15 16 17 18 19 20 21 22 23 24 25 26 27 28 29 30 31 32 33 34 35 36 37 38 39 40 41 42 43 44 45 46 47 48 49 50
000
ASUS45 KABQ 110201
RWRNM
NEW MEXICO REGIONAL WEATHER ROUNDUP
NATIONAL WEATHER SERVICE ALBUQUERQUE NM
700 PM MST WED FEB 10 2016

NOTE: "FAIR" MEANS FEW OR NO CLOUDS BELOW 12,000 FEET AGL WITH NO
       SIGNIFICANT WEATHER OR OBSTRUCTIONS TO VISION.

      THIS PRODUCT IS RELEASED AS TWO VERSIONS.  ONE VERSION NEAR
      THE TOP OF THE HOUR CONTAINING PRELIMINARY DATA FROM ALBUQUERQUE
      AND OTHER STATIONS.  A FINAL VERSION WITH ADDITIONAL DATA IS
      ISSUED ABOUT 10 MINUTES AFTER THE HOUR.

NMZ501-503-504-510>518-110300-
NORTHWEST PLATEAU/NORTHCENTRAL MOUNTAINS

CITY           SKY/WX    TMP DP  RH WIND       PRES   REMARKS
FARMINGTON     CLOUDY    41  21  44 W7        30.33S
SANTA FE       CLEAR     43  17  35 NE6       30.29S
TAOS           CLOUDY    34  21  60 E8        30.33S WCI  27
ANGEL FIRE     FAIR      33  14  45 SW3       30.37S

$$
NMZ402-403-502-505>509-110300-
WESTCENTRAL MOUNTAINS/SOUTHWEST MOUNTAINS

CITY           SKY/WX    TMP DP  RH WIND       PRES   REMARKS
GALLUP         MOCLDY    38  24  57 CALM      30.37R
GRANTS         PTCLDY    41  12  30 NW9       30.37R
SILVER CITY      N/A     48  14  25 N7        30.32S

$$
NMZ407-409-411-412-110300-
SOUTHERN DESERTS

CITY           SKY/WX    TMP DP  RH WIND       PRES   REMARKS
DEMING         CLEAR     55  15  20 SW6       30.27R
ALAMOGORDO     CLEAR     50  12  22 NE9       30.26S
T OR C         CLEAR     57  14  18 CALM      30.26R

$$
NMZ519>523-110300-
CENTRAL VALLEYS/CENTRAL HIGHLANDS

CITY           SKY/WX    TMP DP  RH WIND       PRES   REMARKS
ALBUQUERQUE    PTCLDY    52  15  23 CALM      30.30R
DOUBLE EAGLE   PTCLDY    45  19  36 VRB5      30.32R
MORIARTY ARPT  FAIR      47  15  27 N3        30.31S
CLINES CORNERS CLOUDY    42  20  41 NW17      30.29S
BELEN          FAIR      43  14  30 SE6       30.29S
SOCORRO        NOT AVBL

$$
NMZ524>526-539-540-110300-
SOUTHCENTRAL MOUNTAINS

CITY           SKY/WX    TMP DP  RH WIND       PRES   REMARKS
RUIDOSO          N/A     48   7  18 W7        30.35S

$$
NMZ527>531-110300-
NORTHEAST HIGHLANDS/NORTHEAST PLAINS

CITY           SKY/WX    TMP DP  RH WIND       PRES   REMARKS
LAS VEGAS      CLOUDY    47   9  21 NW16      30.26S
RATON          CLOUDY    50   4  15 NW15      30.20R
CLAYTON        CLOUDY    56   3  11 NW6       30.12R

$$
NMZ532>537-110300-
EASTCENTRAL PLAINS

CITY           SKY/WX    TMP DP  RH WIND       PRES   REMARKS
TUCUMCARI      CLEAR     48  12  23 SW9       30.09S
CANNON AFB     NOT AVBL
CLOVIS AIRPORT CLEAR     46  14  27 SW13      30.15S

$$
NMZ028-029-538-110300-
SOUTHEAST PLAINS

CITY           SKY/WX    TMP DP  RH WIND       PRES   REMARKS
ROSWELL        CLEAR     63  17  17 CALM      30.16F
ARTESIA        CLEAR     57  19  23 SW13      30.17S
CARLSBAD       CLEAR     51  21  30 NW9       30.17R
HOBBS          CLEAR     48  14  25 SW8       30.19S


$$




USA.gov is the U.S. government's official web portal to all federal, state and local government web resources and services.